CW9803 Weather Reports


Display with metric or nautical units.
time (UTC)temp
F
wind
direction
speed
MPH
gust
MPH
rain 1hr
in
rain 24hr
in
rain mn
in
humidity
%
barometer
mb
20260903192310 60 154 1.0 1.0 0.00 0.22 0.22 62 1008.6
20260903191807 60 172 2.0 4.0 0.00 0.22 0.22 63 1008.7
20260903191302 60 172 4.0 4.0 0.00 0.22 0.22 62 1008.7
20260903190756 61 138 3.0 4.0 0.00 0.22 0.22 61 1008.7
20260903190251 61 196 1.0 2.0 0.00 0.22 0.22 60 1008.8
20260903185750 61 148 2.0 2.0 0.00 0.22 0.22 60 1008.8
20260903185245 61 150 0.0 0.0 0.00 0.22 0.22 58 1008.8
20260903184742 61 159 6.0 7.0 0.00 0.22 0.22 58 1008.8
20260903184237 60 144 1.0 1.0 0.00 0.22 0.22 62 1008.8
20260903183733 60 138 2.0 2.0 0.00 0.22 0.22 60 1009.1
20260903183227 60 149 4.0 4.0 0.00 0.22 0.22 64 1009.2
20260903182726 60 187 1.0 2.0 0.00 0.22 0.22 65 1009.2
20260903182221 60 200 4.0 6.0 0.00 0.22 0.22 66 1009.5
20260903181720 60 211 2.0 2.0 0.00 0.22 0.22 64 1009.2
20260903181215 59 145 3.0 3.0 0.00 0.22 0.22 67 1009.2
20260903180710 58 126 0.0 0.0 0.00 0.22 0.22 69 1009.4
20260903180204 59 178 2.0 2.0 0.00 0.22 0.22 67 1009.5
20260903175703 58 138 0.0 0.0 0.00 0.22 0.22 69 1009.2
20260903175202 58 133 0.0 0.0 0.00 0.22 0.22 71 1009.4
20260903174657 57 128 0.0 0.0 0.00 0.22 0.22 71 1009.4
20260903174151 57 120 1.0 1.0 0.00 0.22 0.22 73 1009.3
20260903173647 57 110 1.0 1.0 0.00 0.22 0.22 72 1009.3
20260903173143 58 88 1.0 1.0 0.00 0.22 0.22 72 1009.3
20260903172638 58 143 0.0 0.0 0.00 0.22 0.22 71 1009.4
20260903172133 59 312 4.0 4.0 0.00 0.22 0.22 72 1009.3
20260903171632 59 140 2.0 2.0 0.00 0.22 0.22 73 1009.3
20260903171129 60 28 3.0 3.0 0.00 0.22 0.22 70 1009.4
20260903170627 60 126 0.0 0.0 0.00 0.22 0.22 70 1009.6
20260903170123 58 138 0.0 0.0 0.00 0.22 0.22 73 1009.5
20260903165621 58 121 0.0 0.0 0.00 0.22 0.22 73 1009.5
20260903165116 58 187 2.0 2.0 0.00 0.22 0.22 73 1009.6
20260903164611 57 122 0.0 0.0 0.00 0.22 0.22 76 1009.4
20260903164106 57 89 2.0 2.0 0.00 0.22 0.22 77 1009.5
20260903163601 57 184 0.0 0.0 0.00 0.22 0.22 76 1009.7
20260903163057 57 84 1.0 1.0 0.00 0.22 0.22 76 1009.5
20260903162553 59 125 0.0 0.0 0.00 0.22 0.22 73 1009.5
20260903162049 58 126 1.0 1.0 0.00 0.22 0.22 71 1009.8
20260903161544 58 127 0.0 0.0 0.00 0.22 0.22 77 1009.5
20260903161040 58 142 0.0 0.0 0.00 0.22 0.22 79 1009.7
20260903160538 57 150 0.0 1.0 0.00 0.22 0.22 80 1009.4
20260903160033 56 109 0.0 0.0 0.00 0.22 0.22 81 1009.8
20260903155532 56 89 3.0 3.0 0.00 0.22 0.22 82 1009.6
20260903155028 54 140 0.0 0.0 0.00 0.22 0.22 89 1009.8
20260903154524 53 97 1.0 2.0 0.00 0.22 0.22 94 1009.6
20260903154020 53 90 2.0 3.0 0.00 0.22 0.22 98 1009.5
20260903153515 52 146 0.0 0.0 0.00 0.22 0.22 99 1009.9
20260903153011 52 147 0.0 0.0 0.00 0.22 0.22 99 1009.7
20260903152506 52 150 0.0 0.0 0.00 0.22 0.22 99 1010.0
20260903152002 51 150 0.0 0.0 0.00 0.22 0.22 99 1009.9
20260903151456 51 151 0.0 0.0 0.00 0.22 0.22 99 1010.0
20260903150952 51 144 0.0 0.0 0.00 0.22 0.22 99 1009.9
20260903150451 51 115 0.0 0.0 0.00 0.22 0.22 99 1009.9
20260903145946 51 114 0.0 0.0 0.00 0.22 0.22 99 1009.9
20260903145441 51 130 0.0 0.0 0.00 0.22 0.22 99 1009.8
20260903144936 51 131 0.0 0.0 0.00 0.22 0.22 99 1009.5
20260903144435 51 179 0.0 0.0 0.00 0.22 0.22 99 1009.6
20260903143931 51 151 0.0 0.0 0.00 0.22 0.22 99 1009.7
20260903143428 51 144 0.0 0.0 0.00 0.22 0.22 99 1009.3
20260903142923 50 144 0.0 0.0 0.00 0.22 0.22 99 1009.6
20260903142419 50 145 0.0 0.0 0.00 0.22 0.22 99 1009.6
20260903141915 50 147 0.0 0.0 0.00 0.22 0.22 99 1009.5
20260903141410 50 149 0.0 0.0 0.00 0.22 0.22 99 1009.5
20260903140906 50 140 0.0 0.0 0.00 0.22 0.22 99 1009.5
20260903140400 49 147 0.0 0.0 0.00 0.22 0.22 99 1009.4
20260903135856 49 146 0.0 0.0 0.00 0.22 0.22 99 1009.4
20260903135346 49 111 0.0 0.0 0.00 0.22 0.22 99 1009.5
20260903134844 49 112 0.0 0.0 0.00 0.22 0.22 99 1009.4
20260903134340 49 112 0.0 0.0 0.00 0.22 0.22 99 1009.3
20260903133837 49 112 0.0 0.0 0.00 0.22 0.22 99 1009.1
20260903133334 49 112 0.0 0.0 0.00 0.22 0.22 99 1009.3
20260903132828 49 112 0.0 0.0 0.00 0.22 0.22 99 1009.4
20260903132324 49 112 0.0 0.0 0.00 0.22 0.22 99 1009.3
20260903131819 49 112 0.0 0.0 0.00 0.22 0.22 99 1009.1
20260903131318 49 112 0.0 0.0 0.00 0.22 0.22 99 1009.1
20260903130812 49 112 0.0 0.0 0.00 0.22 0.22 99 1009.0
20260903130313 49 112 0.0 0.0 0.00 0.22 0.22 99 1009.0
20260903125811 49 111 0.0 0.0 0.00 0.22 0.22 99 1008.8
20260903125307 49 111 0.0 0.0 0.00 0.22 0.22 99 1008.5
20260903124806 50 111 0.0 0.0 0.00 0.22 0.22 99 1008.7
20260903124301 50 111 0.0 0.0 0.00 0.22 0.22 99 1008.8
20260903123800 50 113 0.0 0.0 0.00 0.22 0.22 99 1008.7
20260903123259 50 122 0.0 0.0 0.00 0.22 0.22 99 1008.6
20260903122758 50 151 0.0 0.0 0.00 0.22 0.22 99 1008.6
20260903122253 50 151 0.0 0.0 0.00 0.22 0.22 99 1008.6
20260903121751 50 151 0.0 0.0 0.00 0.22 0.22 99 1008.5
20260903121247 50 152 0.0 0.0 0.00 0.22 0.22 99 1008.6
20260903120742 50 152 0.0 0.0 0.00 0.22 0.22 99 1008.6
20260903120236 50 152 0.0 0.0 0.00 0.22 0.22 99 1008.6
20260903115735 50 152 0.0 0.0 0.07 0.22 0.22 99 1008.6
20260903115230 50 152 0.0 0.0 0.07 0.22 0.22 99 1008.6
20260903114724 50 152 0.0 0.0 0.00 0.21 0.21 99 1008.7
20260903114220 50 152 0.0 0.0 0.05 0.21 0.21 99 1008.6
20260903113715 50 153 0.0 0.0 0.05 0.21 0.21 99 1009.0
20260903113211 50 153 0.0 0.0 0.07 0.20 0.20 99 1008.5
20260903112707 50 154 0.0 0.0 0.07 0.20 0.20 99 1008.6
20260903112203 50 150 0.0 0.0 0.05 0.19 0.19 99 1008.5
20260903111701 50 149 0.0 0.0 0.12 0.19 0.19 99 1008.5
20260903111156 50 142 0.0 0.0 0.12 0.18 0.18 99 1008.5
20260903110653 50 141 0.0 0.0 0.17 0.17 0.17 99 1008.5
20260903110148 50 152 0.0 0.0 0.12 0.16 0.16 99 1008.4
20260903105642 50 153 0.0 0.0 0.07 0.14 0.14 99 1008.4
20260903105137 50 149 1.0 1.0 0.07 0.14 0.14 99 1008.6
20260903104637 50 182 2.0 3.0 0.05 0.13 0.13 99 1008.2
20260903104133 50 156 1.0 1.0 0.05 0.13 0.13 99 1008.3
20260903103628 50 147 1.0 1.0 0.07 0.12 0.12 99 1008.0
20260903103124 50 155 1.0 1.0 0.07 0.12 0.12 99 1008.0
20260903102620 50 150 1.0 2.0 0.00 0.11 0.11 99 1008.0
20260903102118 50 161 2.0 2.0 0.07 0.11 0.11 99 1008.3
20260903101613 50 147 0.0 0.0 0.07 0.11 0.11 99 1008.1
20260903101108 50 151 1.0 1.0 0.00 0.10 0.10 99 1008.1
20260903100603 51 156 0.0 1.0 0.00 0.10 0.10 99 1007.8
20260903095600 51 161 0.0 0.0 0.05 0.10 0.10 99 1007.9
20260903095055 50 149 0.0 0.0 0.05 0.10 0.10 99 1007.9
20260903094555 50 150 0.0 0.0 0.00 0.09 0.09 99 1008.2
20260903094050 50 154 0.0 0.0 0.07 0.09 0.09 99 1007.9
20260903093550 50 152 0.0 0.0 0.19 0.09 0.09 99 1007.8
20260903093046 52 152 1.0 1.0 0.12 0.08 0.08 99 1007.7
20260903092545 52 148 0.0 0.0 0.12 0.07 0.07 99 1007.9
20260903092040 52 145 1.0 1.0 0.12 0.06 0.06 99 1007.7
20260903091538 52 138 0.0 0.0 0.07 0.05 0.05 99 1007.7
20260903091033 52 152 0.0 0.0 0.00 0.04 0.04 99 1007.8
20260903090529 52 154 0.0 0.0 0.00 0.04 0.04 99 1007.8
20260903090028 52 120 0.0 0.0 0.05 0.04 0.04 99 1007.5
20260903085526 52 123 0.0 0.0 0.05 0.04 0.04 99 1007.8
20260903085022 52 123 0.0 0.0 0.07 0.03 0.03 99 1007.5
20260903084520 52 124 0.0 0.0 0.07 0.03 0.03 99 1007.8
20260903084015 52 124 0.0 0.0 0.00 0.02 0.02 99 1007.5
20260903083511 52 117 0.0 0.0 0.00 0.02 0.02 99 1007.4
20260903083010 52 118 0.0 0.0 0.00 0.02 0.02 99 1007.7
20260903082505 52 118 0.0 0.0 0.00 0.02 0.02 99 1007.8
20260903082000 52 117 0.0 0.0 0.00 0.02 0.02 99 1007.4
20260903081455 52 133 0.0 0.0 0.00 0.02 0.02 99 1007.7
20260903080952 52 140 0.0 0.0 0.00 0.02 0.02 98 1007.5
20260903080447 52 150 0.0 0.0 0.00 0.02 0.02 98 1007.5
20260903075943 52 128 0.0 0.0 0.00 0.02 0.02 98 1007.4
20260903075438 52 128 0.0 0.0 0.00 0.02 0.02 98 1007.4
20260903074933 52 128 0.0 0.0 0.05 0.02 0.02 98 1007.8
20260903074432 52 128 0.0 0.0 0.05 0.02 0.02 97 1007.4
20260903073928 52 128 0.0 0.0 0.00 0.01 0.01 97 1007.8
20260903073423 52 128 0.0 0.0 0.00 0.01 0.01 97 1007.8
20260903072919 52 118 0.0 0.0 0.07 0.01 0.01 97 1007.7
20260903072414 52 128 0.0 0.0 0.07 0.01 0.01 97 1007.5
20260903071911 52 150 0.0 0.0 0.00 0.00 0.00 97 1007.9
20260903071407 52 154 0.0 0.0 0.00 0.00 0.00 97 1007.7
20260903070903 52 126 0.0 0.0 0.00 0.00 0.00 97 1007.5
20260903070357 52 107 0.0 0.0 0.05 0.00 0.00 97 1007.7
20260903065851 52 137 0.0 0.0 0.05 0.15 0.15 97 1007.7
20260903065351 52 116 0.0 0.0 0.00 0.14 0.14 97 1007.9
20260903064845 52 126 0.0 0.0 0.07 0.14 0.14 96 1007.8
20260903064340 52 151 0.0 0.0 0.07 0.14 0.14 96 1008.1
20260903063836 53 151 0.0 0.0 0.07 0.13 0.13 96 1007.9
20260903063331 52 151 0.0 0.0 0.07 0.13 0.13 96 1008.0
20260903062827 52 151 0.0 0.0 0.05 0.12 0.12 96 1008.1
20260903062326 53 152 0.0 0.0 0.05 0.12 0.12 96 1008.0
20260903061823 53 147 0.0 0.0 0.12 0.12 0.12 96 1008.0
20260903061321 53 146 0.0 0.0 0.07 0.11 0.11 95 1008.1
20260903060818 53 173 0.0 0.0 0.05 0.10 0.10 95 1008.4
20260903060311 53 159 0.0 0.0 0.12 0.10 0.10 95 1008.2
20260903055809 53 147 0.0 0.0 0.12 0.09 0.09 94 1008.1
20260903055308 53 143 0.0 0.0 0.05 0.08 0.08 94 1008.2
20260903054802 53 134 0.0 0.0 0.07 0.07 0.07 94 1008.3
20260903054257 53 145 0.0 0.0 0.07 0.07 0.07 94 1008.5
20260903053754 53 122 0.0 0.0 0.00 0.06 0.06 94 1008.2
20260903053254 53 121 0.0 0.0 0.05 0.06 0.06 94 1008.3
20260903052744 53 124 0.0 0.0 0.05 0.06 0.06 94 1008.2
20260903052239 53 124 0.0 0.0 0.05 0.06 0.06 94 1008.4
20260903051734 53 125 0.0 0.0 0.00 0.05 0.05 94 1008.4
20260903051230 54 125 0.0 0.0 0.00 0.05 0.05 93 1008.3
20260903050726 54 124 0.0 0.0 0.00 0.05 0.05 93 1008.3
20260903050224 53 124 0.0 0.0 0.07 0.05 0.05 93 1008.1
20260903045720 53 124 0.0 0.0 0.07 0.05 0.05 93 1008.3
20260903045216 54 124 0.0 0.0 0.00 0.04 0.04 93 1008.3
20260903044712 54 140 0.0 0.0 0.00 0.04 0.04 93 1008.3
20260903044207 54 139 0.0 0.0 0.00 0.04 0.04 92 1008.4
20260903043704 54 139 0.0 0.0 0.00 0.04 0.04 92 1008.1
20260903043203 54 150 0.0 0.0 0.00 0.04 0.04 92 1008.3
20260903042702 54 147 0.0 0.0 0.00 0.04 0.04 91 1008.2
20260903042157 54 148 1.0 1.0 0.00 0.04 0.04 90 1008.2
20260903041654 54 160 1.0 1.0 0.05 0.04 0.04 87 1008.3
20260903041149 54 157 2.0 2.0 0.05 0.04 0.04 87 1007.9
20260903040649 55 146 0.0 0.0 0.00 0.03 0.03 85 1008.0
20260903040144 55 159 0.0 0.0 0.00 0.03 0.03 85 1008.1
20260903035639 54 142 0.0 0.0 0.00 0.03 0.03 83 1008.0
20260903035130 55 174 2.0 2.0 0.00 0.03 0.03 83 1007.9
20260903034629 55 167 2.0 2.0 0.00 0.03 0.03 83 1007.9
20260903034119 56 138 0.0 1.0 0.00 0.03 0.03 80 1007.9
20260903033615 56 156 0.0 0.0 0.00 0.03 0.03 78 1007.9
20260903033109 57 213 4.0 6.0 0.07 0.03 0.03 74 1007.9
20260903032604 57 200 2.0 2.0 0.07 0.03 0.03 76 1008.0
20260903032059 57 168 3.0 4.0 0.00 0.02 0.02 74 1007.9
20260903031554 57 151 4.0 6.0 0.00 0.02 0.02 76 1007.9
20260903031049 56 146 1.0 2.0 0.00 0.02 0.02 85 1008.0
20260903030544 56 138 0.0 0.0 0.00 0.02 0.02 87 1007.8
20260903030041 57 148 0.0 0.0 0.00 0.02 0.02 88 1007.4
20260903025536 56 155 0.0 1.0 0.00 0.02 0.02 87 1007.8
20260903025032 56 129 0.0 0.0 0.00 0.02 0.02 87 1007.9
20260903024531 56 144 0.0 1.0 0.00 0.02 0.02 88 1007.7
20260903024026 56 139 1.0 1.0 0.00 0.02 0.02 87 1007.7
20260903023521 56 134 0.0 0.0 0.00 0.02 0.02 88 1007.8
20260903023017 56 143 0.0 0.0 0.00 0.02 0.02 88 1007.8
20260903022516 56 120 0.0 0.0 0.00 0.02 0.02 87 1007.4
20260903022014 57 123 0.0 0.0 0.00 0.02 0.02 86 1007.2
20260903021509 57 127 1.0 1.0 0.00 0.02 0.02 85 1007.2
20260903021004 57 77 1.0 2.0 0.07 0.02 0.02 82 1007.5
20260903020459 58 170 1.0 1.0 0.12 0.02 0.02 82 1007.5
20260903015954 59 87 1.0 2.0 0.05 0.01 0.01 81 1007.4
20260903015450 59 172 2.0 3.0 0.00 0.00 0.00 76 1007.3
20260903014944 60 154 1.0 1.0 0.00 0.00 0.00 72 1007.2
20260903014443 61 130 0.0 0.0 0.00 0.00 0.00 69 1007.1
20260903013938 61 146 0.0 0.0 0.00 0.00 0.00 66 1007.2
20260903013433 62 148 0.0 0.0 0.00 0.00 0.00 61 1007.2
20260903012932 62 210 0.0 1.0 0.00 0.00 0.00 59 1007.0
20260903012432 64 167 1.0 2.0 0.00 0.00 0.00 57 1006.9
20260903011930 64 163 1.0 2.0 0.00 0.00 0.00 53 1006.9
20260903011426 65 252 4.0 6.0 0.00 0.00 0.00 51 1006.8
20260903010920 65 265 6.0 7.0 0.00 0.00 0.00 48 1006.4
20260903010416 65 205 3.0 3.0 0.00 0.00 0.00 48 1006.7
20260903005913 66 263 5.0 6.0 0.00 0.00 0.00 47 1006.4
20260903005409 66 280 6.0 7.0 0.00 0.00 0.00 47 1006.1
20260903004906 66 264 7.0 9.0 0.00 0.00 0.00 47 1006.2
20260903004401 66 249 5.0 7.0 0.00 0.00 0.00 46 1006.2
20260903003856 67 275 4.0 6.0 0.00 0.00 0.00 45 1006.4
20260903003350 67 306 4.0 4.0 0.00 0.00 0.00 44 1005.9
20260903002850 67 258 6.0 7.0 0.00 0.00 0.00 43 1006.0
20260903002345 68 272 6.0 7.0 0.00 0.00 0.00 43 1005.9
20260903001840 68 240 6.0 8.0 0.00 0.00 0.00 42 1006.0
20260903001335 68 282 4.0 6.0 0.00 0.00 0.00 41 1005.7
20260903000835 68 180 4.0 4.0 0.00 0.00 0.00 41 1005.5
20260903000332 68 287 2.0 2.0 0.00 0.00 0.00 42 1005.7
20260902235828 68 228 4.0 6.0 0.00 0.00 0.00 42 1005.7
20260902235323 69 205 4.0 4.0 0.00 0.00 0.00 42 1005.6
20260902234818 69 205 2.0 3.0 0.00 0.00 0.00 42 1005.2
20260902234317 68 192 2.0 3.0 0.00 0.00 0.00 42 1005.2
20260902233816 69 224 5.0 6.0 0.00 0.00 0.00 40 1005.3
20260902233311 69 288 3.0 4.0 0.00 0.00 0.00 41 1005.2
20260902232809 69 251 9.0 10.0 0.00 0.00 0.00 39 1005.2
20260902232310 68 277 7.0 9.0 0.00 0.00 0.00 41 1005.2
20260902231809 69 279 9.0 11.0 0.00 0.00 0.00 41 1005.5
20260902231304 69 262 9.0 10.0 0.00 0.00 0.00 40 1005.6
20260902230759 70 238 5.0 6.0 0.00 0.00 0.00 40 1005.3
20260902230258 70 236 5.0 7.0 0.00 0.00 0.00 39 1005.8
20260902225753 70 271 5.0 7.0 0.00 0.00 0.00 39 1005.1
20260902225248 70 273 2.0 3.0 0.00 0.00 0.00 38 1005.4
20260902224746 70 319 6.0 8.0 0.00 0.00 0.00 39 1005.2
20260902224242 70 212 7.0 9.0 0.00 0.00 0.00 39 1004.9
20260902223738 70 290 5.0 6.0 0.00 0.00 0.00 40 1004.9
20260902223237 71 236 8.0 10.0 0.00 0.00 0.00 37 1004.7
20260902222736 71 163 2.0 3.0 0.00 0.00 0.00 39 1004.8
20260902222231 71 152 0.0 0.0 0.00 0.00 0.00 39 1004.7
20260902221725 71 176 2.0 2.0 0.00 0.00 0.00 38 1004.6
20260902221219 71 152 1.0 2.0 0.00 0.00 0.00 38 1004.6
20260902220714 71 141 2.0 3.0 0.00 0.00 0.00 38 1004.7
20260902220214 71 174 5.0 8.0 0.00 0.00 0.00 38 1004.8
20260902215710 72 165 1.0 1.0 0.00 0.00 0.00 37 1004.8
20260902215205 74 139 0.0 1.0 0.00 0.00 0.00 37 1004.7
20260902214701 73 175 1.0 1.0 0.00 0.00 0.00 37 1005.2
20260902214159 72 175 3.0 3.0 0.00 0.00 0.00 39 1005.4
20260902213655 71 204 4.0 6.0 0.00 0.00 0.00 39 1005.3
20260902213149 71 147 3.0 3.0 0.00 0.00 0.00 39 1005.4
20260902212644 71 138 1.0 2.0 0.00 0.00 0.00 40 1005.6
20260902212141 71 173 1.0 1.0 0.00 0.00 0.00 39 1005.5
20260902211636 71 222 4.0 6.0 0.00 0.00 0.00 39 1005.4
20260902211131 71 148 1.0 2.0 0.00 0.00 0.00 39 1005.3
20260902210631 71 173 2.0 2.0 0.00 0.00 0.00 40 1005.5
20260902210126 71 162 1.0 1.0 0.00 0.00 0.00 39 1005.4
20260902205624 69 179 2.0 3.0 0.00 0.00 0.00 41 1005.3
20260902205120 69 168 1.0 1.0 0.00 0.00 0.00 42 1005.4
20260902204615 69 144 1.0 1.0 0.00 0.00 0.00 43 1005.6
20260902204109 69 152 0.0 1.0 0.00 0.00 0.00 42 1005.6
20260902203605 69 141 0.0 0.0 0.00 0.00 0.00 42 1005.4
20260902203104 69 184 1.0 2.0 0.00 0.00 0.00 42 1005.4
20260902202600 69 166 2.0 2.0 0.00 0.00 0.00 42 1005.6
20260902202056 70 217 1.0 2.0 0.00 0.00 0.00 41 1005.6
20260902201551 70 183 4.0 4.0 0.00 0.00 0.00 41 1005.7
20260902201045 71 150 6.0 8.0 0.00 0.00 0.00 40 1005.7
20260902200540 72 142 0.0 1.0 0.00 0.00 0.00 39 1005.7
20260902200037 71 181 4.0 4.0 0.00 0.00 0.00 39 1005.5
20260902195532 72 144 2.0 2.0 0.00 0.00 0.00 40 1005.7
20260902195030 72 139 5.0 9.0 0.00 0.00 0.00 39 1005.9
20260902194524 71 147 1.0 2.0 0.00 0.00 0.00 40 1005.9
20260902194020 72 137 4.0 4.0 0.00 0.00 0.00 39 1006.2
20260902193515 71 129 5.0 7.0 0.00 0.00 0.00 40 1006.0
20260902193015 74 180 12.0 16.0 0.00 0.00 0.00 37 1006.2